Location: Poughquag
(41.6090°N, 73.6820°W)
Time: 07:02:18
(UTC-05:00)

STRAND 1 - Pass Details

Date: 04 December 2023
Orbit: 766 x 778 km, 98.4° (Epoch: 24 February)

Event Time Altitude Azimuth Distance (km) Brightness Sun altitude
Rises 06:24:36 0° 192° (SSW) 3,233 ? -7.6°
Reaches altitude 10° 06:27:10 10° 203° (SSW) 2,309 ? -7.1°
Maximum altitude 06:31:37 30° 264° (W) 1,345 ? -6.4°
Drops below altitude 10° 06:36:06 10° 326° (NW) 2,317 ? -5.6°
Sets 06:38:41 0° 337° (NNW) 3,247 ? -5.2°
